Le nostre stazioni meteo in Italia

Pubblicità
Il mio iltempo24.it
Catania/Sigonella, Italia (16459): Temperatura & dewpoint: 13.06.2019 01:00:00 - 19.06.2019 01:00:00 (CEST)Catania/Sigonella, Italia (16459): velocità del vento: 13.06.2019 01:00:00 - 19.06.2019 01:00:00 (CEST)Catania/Sigonella, Italia (16459): direzione del vento: 13.06.2019 01:00:00 - 19.06.2019 01:00:00 (CEST)Catania/Sigonella, Italia (16459): reduced air pressure: 13.06.2019 01:00:00 - 19.06.2019 01:00:00 (CEST)Catania/Sigonella, Italia (16459): visibility: 13.06.2019 01:00:00 - 19.06.2019 01:00:00 (CEST)
Data & Tempo tt [°C] td [°C] ff [km/h] ff [kn] dd ppp [hPa] vv [km]
19.06.2019 01:00:00 21,0 21,0 8 4 ONO - 10
19.06.2019 00:00:00 21,0 21,0 5 3 ESE - 10
18.06.2019 23:00:00 21,4 21,4 8 4 ESE 1015,5 10
18.06.2019 22:00:00 22,0 22,0 9 5 ESE - 10
18.06.2019 21:00:00 23,0 23,0 9 5 ESE - 10
18.06.2019 20:00:00 24,2 21,7 22 12 E 1013,4 10
18.06.2019 19:00:00 25,0 22,0 24 13 E - 10
18.06.2019 18:00:00 25,0 21,0 22 12 ENE - 10
18.06.2019 17:00:00 27,2 20,0 31 17 ENE 1013,4 10
18.06.2019 16:00:00 27,0 20,0 34 18 E - 10
18.06.2019 15:00:00 27,0 17,0 29 16 E - 10
18.06.2019 14:00:00 27,8 17,0 28 15 E 1013,8 10
18.06.2019 13:00:00 28,0 16,0 21 11 E - 10
18.06.2019 12:00:00 28,0 17,0 18 10 E - 10
18.06.2019 11:00:00 27,8 14,4 18 10 E 1014,1 10
18.06.2019 10:00:00 23,0 14,0 5 3 NE - 10
18.06.2019 09:00:00 20,0 15,0 2 1 ONO - 10
18.06.2019 08:00:00 22,0 19,9 5 3 OSO 1013,9 12
18.06.2019 07:00:00 19,0 19,0 4 2 N - 10
18.06.2019 06:00:00 19,0 19,0 4 2 NNO - 10
18.06.2019 05:00:00 18,6 18,6 9 5 O 1013,0 10
18.06.2019 04:00:00 19,0 19,0 8 4 O - 10
18.06.2019 03:00:00 20,0 20,0 8 4 NNO - 10
18.06.2019 02:00:00 20,0 20,0 4 2 OSO 1013,9 10
18.06.2019 01:00:00 20,0 20,0 4 2 ONO - 10
18.06.2019 00:00:00 20,0 20,0 9 5 SE - 10
17.06.2019 23:00:00 21,4 21,4 4 2 SE 1013,4 10
17.06.2019 22:00:00 23,0 23,0 8 4 E - 10
17.06.2019 21:00:00 24,0 23,0 15 8 E - 10
17.06.2019 20:00:00 25,6 24,9 22 12 E 1012,4 10
17.06.2019 19:00:00 26,0 22,0 24 13 E - 10
17.06.2019 18:00:00 28,0 17,0 26 14 ENE - 10
17.06.2019 17:00:00 28,8 12,7 26 14 E 1012,4 10
17.06.2019 16:00:00 30,0 12,0 26 14 E - 10
17.06.2019 15:00:00 31,0 12,0 24 13 E - 10
17.06.2019 14:00:00 31,0 12,4 26 14 E 1013,3 10
17.06.2019 13:00:00 31,0 13,0 22 12 E - 10
17.06.2019 12:00:00 30,0 14,0 24 13 E - 10
17.06.2019 11:00:00 31,0 12,4 24 13 E 1013,4 10
17.06.2019 10:00:00 29,0 12,0 8 4 SE - 10
17.06.2019 09:00:00 24,0 12,0 4 2 ESE - 10
17.06.2019 08:00:00 23,2 16,3 8 4 ONO 1013,1 15
17.06.2019 07:00:00 20,0 18,0 4 2 - - 10
17.06.2019 06:00:00 17,0 17,0 8 4 S - 10
17.06.2019 05:00:00 20,0 19,2 8 4 NO 1013,4 10
17.06.2019 04:00:00 20,0 20,0 9 5 O - 10
17.06.2019 03:00:00 20,0 20,0 11 6 O - 10
17.06.2019 02:00:00 21,2 21,2 5 3 ONO 1013,8 10
17.06.2019 01:00:00 21,0 21,0 5 3 O - 10
17.06.2019 00:00:00 21,0 21,0 5 3 SE - 10
16.06.2019 23:00:00 22,2 22,2 11 6 ESE 1013,7 10
16.06.2019 22:00:00 24,0 21,0 9 5 E - 10
16.06.2019 21:00:00 25,0 20,0 8 4 E - 10
16.06.2019 20:00:00 27,0 19,1 15 8 E 1013,4 10
16.06.2019 19:00:00 29,0 18,0 21 11 E - 10
16.06.2019 18:00:00 30,0 17,0 16 9 E - 10
16.06.2019 17:00:00 30,4 17,1 24 13 E 1013,5 8
16.06.2019 16:00:00 31,0 17,0 29 16 E - 8
16.06.2019 15:00:00 32,0 15,0 35 19 ENE - 7
16.06.2019 14:00:00 31,0 16,6 37 20 ENE 1013,9 7
16.06.2019 13:00:00 31,0 18,0 24 13 E - 7
16.06.2019 12:00:00 30,0 19,0 22 12 E - 8
16.06.2019 11:00:00 30,0 15,7 22 12 E 1013,9 8
16.06.2019 10:00:00 28,0 19,0 18 10 E - 8
16.06.2019 09:00:00 27,0 20,0 9 5 E - 8
16.06.2019 08:00:00 25,0 19,8 4 2 E 1013,5 8
16.06.2019 07:00:00 21,0 20,0 4 2 NNE - 9
16.06.2019 06:00:00 19,0 19,0 4 2 SO - 10
16.06.2019 05:00:00 20,0 20,0 4 2 E 1013,5 10
16.06.2019 04:00:00 20,0 20,0 5 3 OSO - 10
16.06.2019 03:00:00 21,0 20,0 8 4 OSO - 10
16.06.2019 02:00:00 21,6 21,6 11 6 OSO 1014,1 12
16.06.2019 01:00:00 23,0 23,0 8 4 ONO - 10
16.06.2019 00:00:00 23,0 23,0 5 3 SSO - 10
15.06.2019 23:00:00 23,0 23,0 4 2 SE 1013,8 12
15.06.2019 22:00:00 24,0 24,0 13 7 E - 10
15.06.2019 21:00:00 25,0 20,0 8 4 ESE - 10
15.06.2019 20:00:00 30,0 13,3 15 8 E 1013,0 10
15.06.2019 19:00:00 31,0 12,0 18 10 E - 10
15.06.2019 18:00:00 33,0 12,0 15 8 ENE - 10
15.06.2019 17:00:00 34,2 9,5 18 10 ENE 1013,6 10
15.06.2019 16:00:00 35,0 6,0 24 13 E - 10
15.06.2019 15:00:00 36,0 7,0 26 14 E - 10
15.06.2019 14:00:00 36,2 7,3 21 11 E 1014,1 10
15.06.2019 13:00:00 35,0 13,0 18 10 E - 10
15.06.2019 12:00:00 33,0 15,0 15 8 E - 8
15.06.2019 11:00:00 33,4 15,4 16 9 E 1015,2 8
15.06.2019 10:00:00 31,0 18,0 4 2 - - 8
15.06.2019 09:00:00 28,0 21,0 2 1 - - 8
15.06.2019 08:00:00 23,2 19,6 4 2 NNO 1015,4 8
15.06.2019 07:00:00 22,0 22,0 9 5 SO - 8
15.06.2019 06:00:00 23,0 21,0 9 5 NNO - 8
15.06.2019 05:00:00 22,8 22,8 4 2 ONO 1014,4 10
15.06.2019 04:00:00 22,0 20,0 11 6 SSO - 10
15.06.2019 03:00:00 23,0 20,0 8 4 N - 10
15.06.2019 02:00:00 23,4 19,8 9 5 ONO 1018,8 10
15.06.2019 01:00:00 24,0 20,0 8 4 O - 10
15.06.2019 00:00:00 23,0 22,0 13 7 ONO - 10
14.06.2019 23:00:00 22,8 21,1 9 5 O 1018,5 10
14.06.2019 22:00:00 23,0 21,0 9 5 NNE - 10
14.06.2019 21:00:00 24,0 21,0 5 3 N - 10
14.06.2019 20:00:00 25,0 20,7 11 6 E 1016,9 13
14.06.2019 19:00:00 27,0 21,0 22 12 E - 10
14.06.2019 18:00:00 27,0 20,0 21 11 E - 10
14.06.2019 17:00:00 29,0 19,6 24 13 E 1017,2 15
14.06.2019 16:00:00 29,0 16,0 26 14 E - 10
14.06.2019 15:00:00 29,0 17,0 31 17 E - 10
14.06.2019 14:00:00 30,6 16,6 26 14 E 1017,3 15
14.06.2019 13:00:00 31,0 16,0 24 13 E - 10
14.06.2019 12:00:00 31,0 14,0 28 15 E - 10
14.06.2019 11:00:00 31,8 15,3 15 8 ESE 1017,4 15
14.06.2019 10:00:00 29,0 16,0 4 2 SE - 10
14.06.2019 09:00:00 28,0 16,0 4 2 ONO - 10
14.06.2019 08:00:00 23,0 16,3 9 5 ONO 1017,3 10
14.06.2019 07:00:00 20,0 17,0 9 5 O - 10
14.06.2019 06:00:00 18,0 18,0 11 6 O - 10
14.06.2019 05:00:00 17,2 17,2 9 5 O 1016,5 10
14.06.2019 04:00:00 19,0 19,0 9 5 O - 10
14.06.2019 03:00:00 19,0 19,0 11 6 O - 10
14.06.2019 02:00:00 18,8 18,8 9 5 ONO 1017,0 10
14.06.2019 01:00:00 20,0 20,0 8 4 OSO - 10
14.06.2019 00:00:00 22,0 22,0 5 3 NO - 10
13.06.2019 23:00:00 22,4 22,4 4 2 NNO 1016,3 10
13.06.2019 22:00:00 23,0 22,0 8 4 E - 10
13.06.2019 21:00:00 23,0 23,0 8 4 ESE - 10
13.06.2019 20:00:00 24,8 19,4 15 8 ESE 1014,5 10
13.06.2019 19:00:00 27,0 19,0 21 11 ESE - 10
13.06.2019 18:00:00 27,0 21,0 26 14 E - 10
13.06.2019 17:00:00 27,2 21,0 29 16 E 1014,3 10
13.06.2019 16:00:00 28,0 20,0 37 20 E - 10
13.06.2019 15:00:00 29,0 17,0 28 15 E - 10
13.06.2019 14:00:00 31,2 16,8 26 14 E 1014,3 10
13.06.2019 13:00:00 31,0 14,0 15 8 E - 10
13.06.2019 12:00:00 30,0 17,0 18 10 E - 10
13.06.2019 11:00:00 29,8 14,0 16 9 E 1015,2 9
13.06.2019 10:00:00 27,0 20,0 4 2 N - 9
13.06.2019 09:00:00 23,0 22,0 4 2 O - 9
13.06.2019 08:00:00 19,0 19,0 8 4 OSO 1015,0 12
13.06.2019 07:00:00 17,0 17,0 8 4 OSO - 10
13.06.2019 06:00:00 17,0 17,0 5 3 O - 10
13.06.2019 05:00:00 18,0 18,0 8 4 O 1014,0 10
13.06.2019 04:00:00 19,0 19,0 8 4 SO - 10
13.06.2019 03:00:00 19,0 19,0 9 5 O - 10
13.06.2019 02:00:00 20,0 20,0 5 3 O 1014,5 10
13.06.2019 01:00:00 20,0 20,0 9 5 O - 10

tt = Temperatura
td = dewpoint
ff = velocità del vento
dd = direzione del vento
ppp = reduced air pressure
vv = visibility

Stazioni seguenti

WeatherPro
AMSI
MeteoEarth